Location: Civry
(47.2902°N, 4.6156°E)
Time: 13:09:10
(UTC+00:00)

SL-16 R/B - Pass Details

Date: 09 April 2020
Orbit: 842 x 846 km, 71.0° (Epoch: 27 May)

Event Time Altitude Azimuth Distance (km) Brightness Sun altitude
Rises 23:12:46 0° 330° (NNW) 3,415 6.3 -34.3°
Reaches altitude 10° 23:15:14 10° 328° (NNW) 2,476 5.3 -34.3°
Enters shadow 23:18:40 37° 315° (NW) 1,296 3.4 -34.4°
